Flag for Australia Weather past 2 weeks in Alice Springs, Northern Territory, Australia

Now
84 °F

Clear.


Feels Like: 81 °F
Forecast: 73 / 99 °F
Wind: 7 mph from Northeast

Location: Alice Springs Aerodrome

Current Time: Oct 24, 2014 at 9:35:24 PM

Latest Report: Oct 24, 2014 at 8:30 PM


Visibility: N/A

Pressure: 30.01 "Hg

Humidity: 15%

Dew point: 32 °F

Location of Alice SpringsLocation

Historic Weather in Alice Springs — Graph

°F

Alice Springs temperature yesterday

Maximum temperature yesterday: 99 °F (at 3:30 PM)
Minimum temperature yesterday: 70 °F (at 5:30 AM)
Average temperature yesterday: 84 °F

Past Weeks' High & Low Weather Summary

 TemperatureHumidityPressure
High99 °F (Oct 10, 2:30 PM)44% (Oct 12, 5:30 AM)30.30 "Hg (Oct 12, 5:30 AM)
Low43 °F (Oct 16, 4:30 AM)0% (Oct 18, 2:00 PM)29.80 "Hg (Oct 12, 4:00 PM)
Average75 °F14%30.06 "Hg
* Reported Oct 9 8:30 PM — Oct 24 8:30 PM, Alice Springs, Weather by CustomWeather, © 2014

Note: Actual official high and low records may vary slightly from our data, if they occured in-between our weather recording intervals... More about our weather records

Advertising

Alice Springs weather history for previous 24 hours

 ConditionsComfort  
Time TempWeatherWind HumidityBarometerVisibility
8:30 PM
Oct 24
84 °FClear.7 mph15%30.01 "HgN/A
8:00 PM84 °FClear.7 mph16%30.01 "HgN/A
7:30 PM90 °FClear.6 mph12%29.98 "HgN/A
7:00 PM90 °FClear.7 mph14%29.98 "HgN/A
6:30 PM93 °FClear.8 mph11%29.98 "HgN/A
6:00 PM97 °FSunny.10 mph7%29.95 "HgN/A
5:30 PM97 °FSunny.8 mph9%29.95 "HgN/A
5:00 PM97 °FSunny.7 mph9%29.95 "Hg10 mi
4:30 PM99 °FPassing clouds.12 mph7%29.95 "HgN/A
3:30 PM95 °FSunny.8 mph9%29.95 "Hg10 mi
3:00 PM99 °FPassing clouds.10 mph8%29.98 "HgN/A
2:30 PM99 °FPassing clouds.8 mph8%29.98 "HgN/A
1:30 PM99 °FSunny.9 mph10%30.01 "Hg10 mi
12:30 PM97 °FSunny.13 mph9%30.04 "Hg10 mi
12:00 PM97 °FPassing clouds.16 mph8%30.04 "HgN/A
11:30 AM97 °FPassing clouds.12 mph8%30.07 "HgN/A
11:00 AM95 °FSunny.15 mph11%30.07 "Hg10 mi
10:30 AM93 °FSunny.16 mph11%30.07 "Hg10 mi
10:00 AM91 °FSunny.20 mph13%30.07 "Hg10 mi
9:30 AM91 °FSunny.17 mph13%30.07 "Hg10 mi
9:00 AM90 °FSunny.16 mph14%30.09 "Hg10 mi
8:30 AM86 °FSunny.16 mph15%30.07 "Hg10 mi
8:00 AM84 °FSunny.15 mph16%30.07 "Hg10 mi
7:30 AM84 °FSunny.12 mph15%30.07 "Hg10 mi
7:00 AM82 °FSunny.8 mph15%30.07 "Hg10 mi
6:30 AM81 °FSunny.13 mph16%30.04 "Hg10 mi
6:00 AM81 °FSunny.15 mph15%30.04 "Hg10 mi
5:30 AM79 °FSunny.10 mph15%30.04 "HgN/A
5:00 AM79 °FClear.12 mph15%30.01 "HgN/A
4:30 AM79 °FClear.9 mph16%30.01 "HgN/A
4:00 AM81 °FClear.8 mph14%30.01 "HgN/A
3:30 AM82 °FClear.1 mph10%30.01 "HgN/A
3:00 AM82 °FClear.2 mph12%30.01 "HgN/A
2:30 AM82 °FClear.6 mph12%30.01 "HgN/A
2:00 AM82 °FClear.7 mph10%30.01 "HgN/A
1:30 AM82 °FClear.5 mph11%30.01 "HgN/A
12:30 AM73 °FClear.1 mph19%30.04 "HgN/A
12:00 AM77 °FClear.No wind18%30.04 "HgN/A
11:30 PM
Oct 23
79 °FClear.7 mph20%30.04 "HgN/A
10:30 PM81 °FClear.8 mph16%30.04 "HgN/A
10:00 PM82 °FClear.7 mph13%30.04 "HgN/A
9:30 PM82 °FClear.7 mph13%30.04 "HgN/A
9:00 PM82 °FClear.6 mph13%30.04 "HgN/A
Weather by CustomWeather, © 2014

See weather overviewHow to use our weather pages